User: anonymous
Location: Oshawa
(43.9000°N, 78.8670°W)
Time: 09:44:54
(UTC-04:00)
Language:

Envisat - Orbit

View from above orbital plane
View from above orbital plane
View from above satellite
View from above satellite

Ground track
Ground track

The orbit data is extracted from the following two-line orbital elements,

1 27386U 02009A   14244.15052358  .00000037  00000-0  26388-4 0  4100
2 27386 098.3764 307.6104 0001300 105.9910 306.9557 14.37727550654499
Epoch (UTC): 01 September 2014 03:36:45
Eccentricity: 0.0001300
inclination: 98.3764°
perigee height: 765 km
apogee height: 767 km
right ascension of ascending node: 307.6104°
argument of perigee: 105.9910°
revolutions per day: 14.37727550
mean anomaly at epoch: 306.9557°
orbit number at epoch: 65449

The dashed part of the orbit path shows where the satellite is in the earth's shadow,  

DLR